| time (UTC) | temp F | wind direction | speed knots | gust knots | rain 1hr in | rain 24hr in | rain mn in | humidity % | barometer mb |
| 20260506134050 | 58 | 277 | 7.8 | 14.8 | 0.00 | 0.01 | 0.01 | 87 | 1013.2 |
| 20260506133550 | 58 | 267 | 7.8 | 14.8 | 0.00 | 0.01 | 0.01 | 87 | 1013.2 |
| 20260506133105 | 58 | 291 | 7.8 | 13.9 | 0.00 | 0.01 | 0.01 | 88 | 1013.1 |
| 20260506133058 | 57 | 22 | 3.5 | 7.0 | 0.00 | 0.00 | 0.00 | 88 | 1013.1 |
| 20260506132549 | 58 | 312 | 8.7 | 13.9 | 0.00 | 0.01 | 0.01 | 88 | 1012.8 |
| 20260506132054 | 58 | 281 | 7.8 | 13.0 | 0.00 | 0.01 | 0.01 | 89 | 1013.0 |
| 20260506131557 | 58 | 277 | 7.8 | 13.0 | 0.00 | 0.01 | 0.01 | 89 | 1012.7 |
| 20260506131050 | 58 | 285 | 7.8 | 13.9 | 0.00 | 0.01 | 0.01 | 90 | 1012.5 |
| 20260506130550 | 58 | 269 | 7.0 | 13.9 | 0.00 | 0.01 | 0.01 | 90 | 1012.7 |
| 20260506130058 | 57 | 36 | 4.3 | 9.6 | 0.00 | 0.00 | 0.00 | 88 | 1013.0 |
| 20260506130054 | 58 | 273 | 7.0 | 13.0 | 0.00 | 0.01 | 0.01 | 90 | 1012.6 |
| 20260506125550 | 59 | 267 | 7.0 | 11.3 | 0.00 | 0.01 | 0.01 | 90 | 1012.5 |
| 20260506125050 | 59 | 293 | 1.7 | 7.0 | 0.00 | 0.01 | 0.01 | 91 | 1012.4 |
| 20260506124553 | 59 | 324 | 2.6 | 8.7 | 0.00 | 0.01 | 0.01 | 91 | 1012.1 |
| 20260506124550 | 57 | 13 | 5.2 | 8.7 | 0.00 | 0.00 | 0.00 | 88 | 1012.8 |
| 20260506124052 | 59 | 303 | 4.3 | 9.6 | 0.00 | 0.01 | 0.01 | 91 | 1012.0 |
| 20260506123551 | 59 | 332 | 5.2 | 9.6 | 0.00 | 0.01 | 0.01 | 91 | 1012.1 |
| 20260506123053 | 59 | 331 | 6.1 | 12.2 | 0.00 | 0.01 | 0.01 | 91 | 1012.1 |
| 20260506123049 | 58 | 25 | 4.3 | 9.6 | 0.00 | 0.00 | 0.00 | 88 | 1012.5 |
| 20260506122550 | 59 | 293 | 7.8 | 12.2 | 0.00 | 0.01 | 0.01 | 91 | 1012.1 |
| 20260506122050 | 59 | 291 | 6.1 | 10.4 | 0.00 | 0.01 | 0.01 | 91 | 1012.1 |
| 20260506121557 | 58 | 19 | 3.5 | 10.4 | 0.00 | 0.00 | 0.00 | 87 | 1012.2 |
| 20260506121549 | 59 | 300 | 6.1 | 11.3 | 0.00 | 0.01 | 0.01 | 91 | 1011.9 |
| 20260506121050 | 59 | 289 | 7.8 | 11.3 | 0.00 | 0.01 | 0.01 | 90 | 1011.8 |
| 20260506120550 | 59 | 321 | 7.0 | 10.4 | 0.00 | 0.01 | 0.01 | 90 | 1011.8 |
| 20260506120058 | 59 | 315 | 6.1 | 10.4 | 0.01 | 0.01 | 0.01 | 90 | 1011.8 |
| 20260506120048 | 58 | 54 | 5.2 | 10.4 | 0.00 | 0.00 | 0.00 | 87 | 1012.0 |
| 20260506115553 | 59 | 294 | 5.2 | 11.3 | 0.01 | 0.01 | 0.01 | 90 | 1011.7 |
| 20260506115050 | 60 | 276 | 7.0 | 13.0 | 0.01 | 0.01 | 0.01 | 90 | 1011.6 |
| 20260506114553 | 59 | 33 | 4.3 | 9.6 | 0.00 | 0.00 | 0.00 | 87 | 1011.8 |
| 20260506114050 | 60 | 307 | 6.1 | 12.2 | 0.01 | 0.01 | 0.01 | 90 | 1011.5 |
| 20260506113549 | 60 | 298 | 7.0 | 13.0 | 0.01 | 0.01 | 0.01 | 90 | 1011.4 |
| 20260506113053 | 60 | 275 | 7.0 | 13.9 | 0.01 | 0.01 | 0.01 | 90 | 1011.4 |
| 20260506113049 | 60 | 20 | 5.2 | 8.7 | 0.00 | 0.00 | 0.00 | 86 | 1011.4 |
| 20260506112551 | 61 | 299 | 9.6 | 13.9 | 0.01 | 0.01 | 0.01 | 90 | 1011.4 |
| 20260506112049 | 61 | 343 | 8.7 | 13.0 | 0.01 | 0.01 | 0.01 | 90 | 1011.2 |
| 20260506111554 | 60 | 17 | 3.5 | 7.8 | 0.00 | 0.00 | 0.00 | 86 | 1011.3 |
| 20260506111053 | 61 | 320 | 7.8 | 12.2 | 0.01 | 0.01 | 0.01 | 89 | 1011.0 |
| 20260506110550 | 61 | 336 | 7.0 | 10.4 | 0.01 | 0.01 | 0.01 | 89 | 1010.8 |
| 20260506110054 | 62 | 332 | 6.1 | 10.4 | 0.00 | 0.00 | 0.00 | 89 | 1010.8 |
| 20260506105551 | 62 | 300 | 7.0 | 10.4 | 0.00 | 0.00 | 0.00 | 89 | 1010.4 |
| 20260506105053 | 62 | 328 | 5.2 | 10.4 | 0.00 | 0.00 | 0.00 | 89 | 1010.4 |
| 20260506104556 | 62 | 44 | 5.2 | 8.7 | 0.00 | 0.00 | 0.00 | 84 | 1010.9 |
| 20260506104049 | 62 | 296 | 7.8 | 13.9 | 0.00 | 0.00 | 0.00 | 88 | 1010.4 |
| 20260506103549 | 62 | 300 | 7.0 | 13.9 | 0.00 | 0.00 | 0.00 | 88 | 1010.4 |
| 20260506103101 | 64 | 38 | 3.5 | 8.7 | 0.00 | 0.00 | 0.00 | 83 | 1010.3 |
| 20260506103052 | 63 | 311 | 7.0 | 11.3 | 0.00 | 0.00 | 0.00 | 88 | 1010.3 |
| 20260506102550 | 63 | 327 | 7.0 | 11.3 | 0.00 | 0.00 | 0.00 | 88 | 1010.2 |
| 20260506102050 | 63 | 298 | 7.0 | 11.3 | 0.00 | 0.00 | 0.00 | 88 | 1010.2 |
| 20260506101552 | 63 | 301 | 7.8 | 13.9 | 0.00 | 0.00 | 0.00 | 87 | 1010.2 |
| 20260506101550 | 65 | 42 | 6.1 | 10.4 | 0.00 | 0.00 | 0.00 | 82 | 1010.0 |
| 20260506101052 | 64 | 318 | 6.1 | 13.9 | 0.00 | 0.00 | 0.00 | 87 | 1010.0 |
| 20260506100550 | 64 | 287 | 8.7 | 13.0 | 0.00 | 0.00 | 0.00 | 87 | 1009.9 |
| 20260506100053 | 67 | 41 | 7.0 | 11.3 | 0.00 | 0.00 | 0.00 | 80 | 1009.9 |
| 20260506095550 | 65 | 300 | 7.0 | 13.9 | 0.00 | 0.00 | 0.00 | 86 | 1009.7 |
| 20260506095054 | 65 | 274 | 6.1 | 13.0 | 0.00 | 0.00 | 0.00 | 85 | 1009.7 |
| 20260506094611 | 66 | 304 | 7.8 | 13.9 | 0.00 | 0.00 | 0.00 | 85 | 1009.6 |
| 20260506094601 | 70 | 21 | 5.2 | 9.6 | 0.00 | 0.00 | 0.00 | 81 | 1009.6 |
| 20260506094052 | 66 | 296 | 7.8 | 13.9 | 0.00 | 0.00 | 0.00 | 84 | 1009.6 |
| 20260506093553 | 67 | 290 | 8.7 | 13.9 | 0.00 | 0.00 | 0.00 | 84 | 1009.6 |
| 20260506093051 | 68 | 285 | 8.7 | 13.9 | 0.00 | 0.00 | 0.00 | 83 | 1009.5 |
| 20260506093049 | 75 | 0 | 0.0 | 4.3 | 0.00 | 0.00 | 0.00 | 86 | 1009.4 |
| 20260506092550 | 68 | 305 | 7.8 | 12.2 | 0.00 | 0.00 | 0.00 | 83 | 1009.3 |
| 20260506092050 | 69 | 309 | 5.2 | 12.2 | 0.00 | 0.00 | 0.00 | 83 | 1009.3 |
| 20260506091554 | 70 | 292 | 5.2 | 11.3 | 0.00 | 0.00 | 0.00 | 83 | 1009.2 |
| 20260506091549 | 75 | 245 | 1.7 | 7.0 | 0.00 | 0.00 | 0.00 | 86 | 1009.3 |
| 20260506091050 | 71 | 303 | 6.1 | 11.3 | 0.00 | 0.00 | 0.00 | 83 | 1009.1 |
| 20260506090549 | 73 | 279 | 4.3 | 9.6 | 0.00 | 0.00 | 0.00 | 84 | 1009.2 |
| 20260506090051 | 74 | 144 | 3.5 | 6.1 | 0.00 | 0.00 | 0.00 | 87 | 1009.1 |
| 20260506085549 | 74 | 154 | 1.7 | 7.8 | 0.00 | 0.00 | 0.00 | 87 | 1008.9 |
| 20260506085053 | 74 | 146 | 1.7 | 7.8 | 0.00 | 0.00 | 0.00 | 87 | 1009.1 |
| 20260506084602 | 75 | 234 | 1.7 | 7.8 | 0.00 | 0.00 | 0.00 | 86 | 1009.4 |
| 20260506084557 | 74 | 144 | 4.3 | 7.8 | 0.00 | 0.00 | 0.00 | 87 | 1009.1 |
| 20260506084050 | 74 | 153 | 3.5 | 8.7 | 0.00 | 0.00 | 0.00 | 87 | 1009.1 |
| 20260506083553 | 74 | 165 | 3.5 | 8.7 | 0.00 | 0.00 | 0.00 | 87 | 1009.0 |
| 20260506083057 | 74 | 139 | 3.5 | 9.6 | 0.00 | 0.00 | 0.00 | 87 | 1009.0 |
| 20260506083050 | 75 | 241 | 1.7 | 7.0 | 0.00 | 0.00 | 0.00 | 86 | 1009.2 |
| 20260506082550 | 74 | 163 | 4.3 | 10.4 | 0.00 | 0.00 | 0.00 | 87 | 1009.0 |
| 20260506082050 | 74 | 130 | 3.5 | 10.4 | 0.00 | 0.00 | 0.00 | 86 | 1009.0 |
| 20260506081548 | 74 | 150 | 5.2 | 10.4 | 0.00 | 0.00 | 0.00 | 86 | 1009.0 |
| 20260506081051 | 74 | 140 | 5.2 | 12.2 | 0.00 | 0.00 | 0.00 | 86 | 1009.1 |
| 20260506080551 | 74 | 163 | 7.8 | 12.2 | 0.00 | 0.00 | 0.00 | 86 | 1009.0 |
| 20260506080106 | 74 | 145 | 5.2 | 9.6 | 0.00 | 0.00 | 0.00 | 86 | 1009.0 |
| 20260506073106 | 75 | 153 | 7.0 | 11.3 | 0.00 | 0.00 | 0.00 | 86 | 1009.2 |
| 20260506073059 | 75 | 246 | 0.9 | 3.5 | 0.00 | 0.00 | 0.00 | 86 | 1009.6 |
| 20260506072550 | 75 | 109 | 6.1 | 12.2 | 0.00 | 0.00 | 0.00 | 86 | 1009.3 |
| 20260506072048 | 75 | 167 | 7.8 | 12.2 | 0.00 | 0.00 | 0.00 | 86 | 1009.3 |
| 20260506071555 | 75 | 246 | 1.7 | 3.5 | 0.00 | 0.00 | 0.00 | 86 | 1009.5 |
| 20260506071053 | 75 | 140 | 5.2 | 9.6 | 0.00 | 0.00 | 0.00 | 86 | 1009.4 |
| 20260506070550 | 75 | 138 | 4.3 | 9.6 | 0.00 | 0.00 | 0.00 | 86 | 1009.3 |
| 20260506062049 | 75 | 141 | 5.2 | 8.7 | 0.00 | 0.00 | 0.00 | 85 | 1009.1 |
| 20260506061556 | 75 | 147 | 5.2 | 8.7 | 0.00 | 0.00 | 0.00 | 85 | 1009.2 |
| 20260506061049 | 75 | 134 | 3.5 | 9.6 | 0.00 | 0.00 | 0.00 | 85 | 1009.2 |
| 20260506060549 | 75 | 131 | 4.3 | 9.6 | 0.00 | 0.00 | 0.00 | 85 | 1009.2 |
| 20260506051049 | 76 | 132 | 5.2 | 11.3 | 0.00 | 0.00 | 0.00 | 84 | 1008.6 |
| 20260506050550 | 76 | 147 | 7.0 | 11.3 | 0.00 | 0.00 | 0.00 | 83 | 1008.6 |
| 20260506050110 | 76 | 243 | 3.5 | 8.7 | 0.00 | 0.00 | 0.00 | 84 | 1008.6 |
| 20260506045049 | 76 | 145 | 6.1 | 12.2 | 0.00 | 0.00 | 0.00 | 83 | 1008.4 |
| 20260506044558 | 76 | 111 | 6.1 | 12.2 | 0.00 | 0.00 | 0.00 | 83 | 1008.5 |
| 20260506044554 | 76 | 209 | 5.2 | 10.4 | 0.00 | 0.00 | 0.00 | 84 | 1008.7 |
| 20260506044049 | 76 | 132 | 7.0 | 12.2 | 0.00 | 0.00 | 0.00 | 83 | 1008.5 |
| 20260506043549 | 76 | 115 | 7.0 | 12.2 | 0.00 | 0.00 | 0.00 | 83 | 1008.4 |
| 20260506043059 | 76 | 234 | 3.5 | 8.7 | 0.00 | 0.00 | 0.00 | 84 | 1008.6 |
| 20260506043049 | 76 | 136 | 7.0 | 12.2 | 0.00 | 0.00 | 0.00 | 83 | 1008.6 |
| 20260506042550 | 76 | 143 | 7.0 | 12.2 | 0.00 | 0.00 | 0.00 | 83 | 1008.4 |
| 20260506042049 | 76 | 131 | 7.0 | 13.0 | 0.00 | 0.00 | 0.00 | 83 | 1008.4 |
| 20260506041600 | 76 | 230 | 3.5 | 7.0 | 0.00 | 0.00 | 0.00 | 83 | 1008.7 |
| 20260506041556 | 76 | 145 | 7.0 | 13.0 | 0.00 | 0.00 | 0.00 | 83 | 1008.3 |
| 20260506041049 | 76 | 150 | 7.0 | 13.0 | 0.00 | 0.00 | 0.00 | 83 | 1008.4 |
| 20260506040549 | 76 | 126 | 4.3 | 12.2 | 0.00 | 0.00 | 0.00 | 83 | 1008.1 |
| 20260506040104 | 76 | 225 | 2.6 | 5.2 | 0.00 | 0.00 | 0.00 | 83 | 1008.7 |
| 20260506040052 | 76 | 153 | 7.0 | 12.2 | 0.00 | 0.00 | 0.00 | 83 | 1008.3 |
| 20260506035550 | 76 | 132 | 6.1 | 10.4 | 0.00 | 0.00 | 0.00 | 82 | 1008.1 |
| 20260506035049 | 76 | 116 | 6.1 | 10.4 | 0.00 | 0.00 | 0.00 | 82 | 1008.0 |
| 20260506034604 | 76 | 233 | 1.7 | 6.1 | 0.00 | 0.00 | 0.00 | 83 | 1008.6 |
| 20260506034557 | 76 | 106 | 6.1 | 10.4 | 0.00 | 0.00 | 0.00 | 82 | 1008.0 |
| 20260506034049 | 76 | 115 | 5.2 | 10.4 | 0.00 | 0.00 | 0.00 | 82 | 1008.2 |
| 20260506033549 | 76 | 137 | 2.6 | 7.8 | 0.00 | 0.00 | 0.00 | 82 | 1007.8 |
| 20260506033101 | 76 | 140 | 4.3 | 9.6 | 0.00 | 0.00 | 0.00 | 81 | 1007.9 |
| 20260506033055 | 76 | 232 | 4.3 | 9.6 | 0.00 | 0.00 | 0.00 | 83 | 1007.7 |
| 20260506032550 | 77 | 131 | 4.3 | 9.6 | 0.00 | 0.00 | 0.00 | 81 | 1007.6 |
| 20260506032050 | 77 | 130 | 5.2 | 10.4 | 0.00 | 0.00 | 0.00 | 80 | 1007.5 |
| 20260506031600 | 76 | 204 | 4.3 | 8.7 | 0.00 | 0.00 | 0.00 | 83 | 1007.5 |
| 20260506031555 | 77 | 121 | 6.1 | 13.0 | 0.00 | 0.00 | 0.00 | 80 | 1007.2 |
| 20260506031049 | 77 | 136 | 6.1 | 13.0 | 0.00 | 0.00 | 0.00 | 80 | 1007.2 |
| 20260506030552 | 77 | 134 | 7.0 | 11.3 | 0.00 | 0.00 | 0.00 | 80 | 1007.1 |
| 20260506025549 | 77 | 142 | 5.2 | 11.3 | 0.00 | 0.00 | 0.00 | 80 | 1006.7 |
| 20260506025053 | 77 | 115 | 6.1 | 13.0 | 0.00 | 0.00 | 0.00 | 79 | 1006.7 |
| 20260506024610 | 77 | 145 | 7.0 | 13.0 | 0.00 | 0.00 | 0.00 | 79 | 1006.6 |
| 20260506024559 | 76 | 188 | 1.7 | 4.3 | 0.00 | 0.00 | 0.00 | 82 | 1006.9 |
| 20260506024049 | 77 | 108 | 7.8 | 12.2 | 0.00 | 0.00 | 0.00 | 79 | 1006.5 |
| 20260506023551 | 77 | 142 | 7.8 | 11.3 | 0.00 | 0.00 | 0.00 | 79 | 1006.2 |
| 20260506023102 | 77 | 109 | 6.1 | 11.3 | 0.00 | 0.00 | 0.00 | 79 | 1006.3 |
| 20260506023056 | 77 | 217 | 2.6 | 7.0 | 0.00 | 0.00 | 0.00 | 81 | 1006.8 |
| 20260506022549 | 77 | 125 | 6.1 | 9.6 | 0.00 | 0.00 | 0.00 | 78 | 1006.4 |
| 20260506022050 | 77 | 118 | 4.3 | 9.6 | 0.00 | 0.00 | 0.00 | 78 | 1006.7 |
| 20260506021603 | 77 | 221 | 3.5 | 5.2 | 0.00 | 0.00 | 0.00 | 81 | 1006.8 |
| 20260506021559 | 77 | 123 | 6.1 | 9.6 | 0.00 | 0.00 | 0.00 | 78 | 1006.7 |
| 20260506021048 | 77 | 132 | 4.3 | 8.7 | 0.00 | 0.00 | 0.00 | 78 | 1006.7 |
| 20260506020549 | 78 | 146 | 3.5 | 7.8 | 0.00 | 0.00 | 0.00 | 78 | 1006.6 |
| 20260506020052 | 77 | 214 | 3.5 | 5.2 | 0.00 | 0.00 | 0.00 | 80 | 1006.7 |
| 20260506015551 | 78 | 133 | 3.5 | 9.6 | 0.00 | 0.00 | 0.00 | 78 | 1006.6 |
| 20260506015049 | 78 | 146 | 3.5 | 9.6 | 0.00 | 0.00 | 0.00 | 77 | 1006.4 |
| 20260506014554 | 78 | 237 | 1.7 | 3.5 | 0.00 | 0.00 | 0.00 | 79 | 1006.6 |
| 20260506014051 | 78 | 119 | 3.5 | 10.4 | 0.00 | 0.00 | 0.00 | 77 | 1006.3 |
| 20260506013550 | 78 | 98 | 4.3 | 10.4 | 0.00 | 0.00 | 0.00 | 76 | 1006.4 |
| 20260506013059 | 79 | 119 | 4.3 | 10.4 | 0.00 | 0.00 | 0.00 | 76 | 1006.3 |
| 20260506013057 | 79 | 240 | 1.7 | 4.3 | 0.00 | 0.00 | 0.00 | 78 | 1006.7 |
| 20260506012549 | 79 | 114 | 3.5 | 8.7 | 0.00 | 0.00 | 0.00 | 75 | 1006.2 |
| 20260506012050 | 79 | 132 | 2.6 | 10.4 | 0.00 | 0.00 | 0.00 | 75 | 1006.3 |
| 20260506011620 | 79 | 132 | 5.2 | 13.9 | 0.00 | 0.00 | 0.00 | 75 | 1006.2 |
| 20260506011603 | 79 | 240 | 1.7 | 4.3 | 0.00 | 0.00 | 0.00 | 76 | 1006.5 |
| 20260506011052 | 79 | 150 | 5.2 | 13.9 | 0.00 | 0.00 | 0.00 | 74 | 1006.2 |
| 20260506010549 | 79 | 119 | 6.1 | 13.9 | 0.00 | 0.00 | 0.00 | 74 | 1006.0 |
| 20260506010056 | 80 | 144 | 7.8 | 13.0 | 0.00 | 0.00 | 0.00 | 74 | 1005.9 |
| 20260506010051 | 80 | 260 | 3.5 | 6.1 | 0.00 | 0.00 | 0.00 | 75 | 1006.3 |
| 20260506005550 | 80 | 137 | 6.1 | 11.3 | 0.00 | 0.00 | 0.00 | 74 | 1006.0 |
| 20260506005052 | 80 | 115 | 7.0 | 12.2 | 0.00 | 0.00 | 0.00 | 73 | 1005.8 |
| 20260506004548 | 80 | 130 | 7.0 | 14.8 | 0.00 | 0.00 | 0.00 | 73 | 1005.7 |
| 20260506004049 | 80 | 125 | 5.2 | 14.8 | 0.00 | 0.00 | 0.00 | 73 | 1005.9 |
| 20260506003550 | 80 | 148 | 7.8 | 18.2 | 0.00 | 0.00 | 0.00 | 73 | 1005.9 |
| 20260506003056 | 81 | 140 | 7.0 | 18.2 | 0.00 | 0.00 | 0.00 | 72 | 1005.9 |
| 20260506003053 | 81 | 240 | 2.6 | 7.8 | 0.00 | 0.00 | 0.00 | 72 | 1006.2 |
| 20260506002549 | 81 | 101 | 7.0 | 19.1 | 0.00 | 0.00 | 0.00 | 72 | 1005.7 |
| 20260506002049 | 81 | 109 | 11.3 | 19.1 | 0.00 | 0.00 | 0.00 | 71 | 1005.8 |
| 20260506001557 | 81 | 130 | 7.8 | 13.9 | 0.00 | 0.00 | 0.00 | 71 | 1005.9 |
| 20260506001554 | 82 | 218 | 4.3 | 7.8 | 0.00 | 0.00 | 0.00 | 71 | 1006.1 |
| 20260506001050 | 82 | 136 | 7.8 | 15.6 | 0.00 | 0.00 | 0.00 | 71 | 1005.8 |
| 20260506000549 | 82 | 135 | 8.7 | 15.6 | 0.00 | 0.00 | 0.00 | 71 | 1005.9 |
| 20260506000101 | 82 | 126 | 8.7 | 14.8 | 0.00 | 0.00 | 0.00 | 70 | 1006.2 |
| 20260506000055 | 83 | 238 | 5.2 | 10.4 | 0.00 | 0.00 | 0.00 | 71 | 1006.2 |
| 20260505235549 | 82 | 137 | 8.7 | 15.6 | 0.00 | 0.00 | 0.00 | 70 | 1006.0 |
| 20260505235049 | 82 | 143 | 7.8 | 15.6 | 0.00 | 0.00 | 0.00 | 70 | 1005.9 |
| 20260505234606 | 83 | 229 | 3.5 | 7.8 | 0.00 | 0.00 | 0.00 | 71 | 1006.2 |
| 20260505234554 | 82 | 108 | 6.1 | 14.8 | 0.00 | 0.00 | 0.00 | 70 | 1005.9 |
| 20260505234053 | 82 | 137 | 9.6 | 15.6 | 0.00 | 0.00 | 0.00 | 69 | 1005.9 |
| 20260505233549 | 82 | 134 | 8.7 | 19.1 | 0.00 | 0.00 | 0.00 | 70 | 1005.9 |
| 20260505233058 | 82 | 138 | 9.6 | 19.1 | 0.00 | 0.00 | 0.00 | 70 | 1005.7 |
| 20260505233053 | 83 | 259 | 4.3 | 10.4 | 0.00 | 0.00 | 0.00 | 71 | 1006.0 |
| 20260505232549 | 83 | 132 | 10.4 | 19.1 | 0.00 | 0.00 | 0.00 | 69 | 1005.6 |
| 20260505232050 | 83 | 110 | 9.6 | 16.5 | 0.00 | 0.00 | 0.00 | 68 | 1005.6 |
| 20260505231606 | 82 | 217 | 5.2 | 13.9 | 0.00 | 0.00 | 0.00 | 71 | 1005.7 |
| 20260505231600 | 83 | 166 | 9.6 | 16.5 | 0.00 | 0.00 | 0.00 | 69 | 1005.4 |
| 20260505231049 | 82 | 152 | 7.8 | 16.5 | 0.00 | 0.00 | 0.00 | 69 | 1005.2 |
| 20260505230549 | 82 | 157 | 9.6 | 16.5 | 0.00 | 0.00 | 0.00 | 69 | 1005.4 |
| 20260505230053 | 83 | 244 | 5.2 | 10.4 | 0.00 | 0.00 | 0.00 | 70 | 1005.5 |
| 20260505225549 | 82 | 135 | 7.0 | 19.1 | 0.00 | 0.00 | 0.00 | 69 | 1005.4 |
| 20260505225049 | 83 | 155 | 11.3 | 21.7 | 0.00 | 0.00 | 0.00 | 69 | 1005.3 |
| 20260505224555 | 83 | 137 | 12.2 | 22.6 | 0.00 | 0.00 | 0.00 | 68 | 1005.4 |
| 20260505224550 | 83 | 205 | 6.1 | 16.5 | 0.00 | 0.00 | 0.00 | 70 | 1005.6 |
| 20260505224049 | 83 | 93 | 12.2 | 22.6 | 0.00 | 0.00 | 0.00 | 68 | 1005.2 |
| 20260505223550 | 83 | 98 | 8.7 | 17.4 | 0.00 | 0.00 | 0.00 | 70 | 1005.2 |
| 20260505223102 | 83 | 248 | 5.2 | 12.2 | 0.00 | 0.00 | 0.00 | 71 | 1005.5 |
| 20260505223057 | 83 | 131 | 10.4 | 17.4 | 0.00 | 0.00 | 0.00 | 68 | 1005.3 |
| 20260505222549 | 83 | 137 | 10.4 | 19.1 | 0.00 | 0.00 | 0.00 | 69 | 1005.2 |
| 20260505222049 | 83 | 111 | 10.4 | 19.1 | 0.00 | 0.00 | 0.00 | 69 | 1005.3 |
| 20260505221602 | 83 | 138 | 10.4 | 19.1 | 0.00 | 0.00 | 0.00 | 69 | 1005.2 |
| 20260505221557 | 83 | 264 | 4.3 | 15.6 | 0.00 | 0.00 | 0.00 | 71 | 1005.6 |
| 20260505221049 | 83 | 130 | 10.4 | 19.1 | 0.00 | 0.00 | 0.00 | 70 | 1005.3 |
| 20260505220549 | 83 | 131 | 9.6 | 21.7 | 0.00 | 0.00 | 0.00 | 69 | 1005.4 |
| 20260505220107 | 82 | 117 | 10.4 | 21.7 | 0.00 | 0.00 | 0.00 | 70 | 1005.4 |
| 20260505220055 | 82 | 248 | 5.2 | 14.8 | 0.00 | 0.00 | 0.00 | 71 | 1005.8 |
| 20260505215549 | 82 | 138 | 9.6 | 18.2 | 0.00 | 0.00 | 0.00 | 69 | 1005.5 |
| 20260505215049 | 83 | 140 | 9.6 | 20.0 | 0.00 | 0.00 | 0.00 | 70 | 1005.6 |
| 20260505214613 | 82 | 221 | 5.2 | 14.8 | 0.00 | 0.00 | 0.00 | 71 | 1006.0 |
| 20260505214554 | 82 | 125 | 12.2 | 21.7 | 0.00 | 0.00 | 0.00 | 70 | 1005.5 |
| 20260505214049 | 82 | 110 | 9.6 | 21.7 | 0.00 | 0.00 | 0.00 | 69 | 1005.7 |
| 20260505213548 | 83 | 150 | 12.2 | 21.7 | 0.00 | 0.00 | 0.00 | 68 | 1005.9 |
| 20260505213101 | 83 | 245 | 5.2 | 12.2 | 0.00 | 0.00 | 0.00 | 71 | 1006.3 |
| 20260505213056 | 83 | 147 | 10.4 | 20.0 | 0.00 | 0.00 | 0.00 | 68 | 1005.8 |
| 20260505212548 | 83 | 177 | 10.4 | 22.6 | 0.00 | 0.00 | 0.00 | 69 | 1005.9 |
| 20260505212050 | 83 | 137 | 8.7 | 22.6 | 0.00 | 0.00 | 0.00 | 69 | 1005.9 |
| 20260505211611 | 83 | 123 | 9.6 | 19.1 | 0.00 | 0.00 | 0.00 | 68 | 1006.0 |
| 20260505211558 | 82 | 226 | 7.0 | 17.4 | 0.00 | 0.00 | 0.00 | 70 | 1006.4 |
| 20260505211050 | 83 | 128 | 11.3 | 19.1 | 0.00 | 0.00 | 0.00 | 69 | 1006.0 |
| 20260505210550 | 83 | 143 | 10.4 | 19.1 | 0.00 | 0.00 | 0.00 | 69 | 1006.1 |
| 20260505210058 | 83 | 92 | 9.6 | 19.1 | 0.00 | 0.00 | 0.00 | 69 | 1006.2 |
| 20260505210055 | 83 | 275 | 6.1 | 11.3 | 0.00 | 0.00 | 0.00 | 70 | 1006.6 |
| 20260505205549 | 83 | 162 | 8.7 | 20.0 | 0.00 | 0.00 | 0.00 | 69 | 1006.4 |
| 20260505205049 | 83 | 130 | 7.8 | 20.0 | 0.00 | 0.00 | 0.00 | 70 | 1006.4 |
| 20260505204611 | 83 | 135 | 10.4 | 20.0 | 0.00 | 0.00 | 0.00 | 68 | 1006.5 |
| 20260505204553 | 83 | 259 | 7.8 | 14.8 | 0.00 | 0.00 | 0.00 | 70 | 1006.8 |
| 20260505204049 | 83 | 158 | 10.4 | 19.1 | 0.00 | 0.00 | 0.00 | 68 | 1006.6 |
| 20260505203552 | 84 | 128 | 7.8 | 19.1 | 0.00 | 0.00 | 0.00 | 68 | 1006.5 |
| 20260505203106 | 83 | 148 | 10.4 | 21.7 | 0.00 | 0.00 | 0.00 | 70 | 1006.5 |
| 20260505203050 | 82 | 219 | 5.2 | 12.2 | 0.00 | 0.00 | 0.00 | 71 | 1006.9 |
| 20260505202549 | 82 | 131 | 10.4 | 21.7 | 0.00 | 0.00 | 0.00 | 69 | 1006.5 |
| 20260505202049 | 82 | 116 | 10.4 | 18.2 | 0.00 | 0.00 | 0.00 | 69 | 1006.5 |
| 20260505201600 | 81 | 128 | 10.4 | 17.4 | 0.00 | 0.00 | 0.00 | 71 | 1006.6 |
| 20260505201554 | 83 | 257 | 5.2 | 17.4 | 0.00 | 0.00 | 0.00 | 71 | 1006.9 |
| 20260505201049 | 81 | 122 | 8.7 | 17.4 | 0.00 | 0.00 | 0.00 | 71 | 1006.5 |
| 20260505200551 | 82 | 148 | 10.4 | 22.6 | 0.00 | 0.00 | 0.00 | 69 | 1006.5 |
| 20260505200058 | 82 | 261 | 4.3 | 15.6 | 0.00 | 0.00 | 0.00 | 72 | 1006.9 |
| 20260505200055 | 83 | 168 | 13.0 | 22.6 | 0.00 | 0.00 | 0.00 | 68 | 1006.6 |
| 20260505195548 | 83 | 143 | 10.4 | 20.0 | 0.00 | 0.00 | 0.00 | 68 | 1006.6 |
| 20260505195048 | 83 | 165 | 10.4 | 20.0 | 0.00 | 0.00 | 0.00 | 68 | 1006.6 |
| 20260505194600 | 83 | 136 | 11.3 | 19.1 | 0.00 | 0.00 | 0.00 | 70 | 1006.5 |
| 20260505194547 | 82 | 239 | 7.8 | 13.0 | 0.00 | 0.00 | 0.00 | 72 | 1007.1 |
| 20260505194050 | 82 | 151 | 12.2 | 20.0 | 0.00 | 0.00 | 0.00 | 70 | 1006.8 |
| 20260505193551 | 82 | 129 | 12.2 | 20.9 | 0.00 | 0.00 | 0.00 | 68 | 1006.9 |
| 20260505193056 | 82 | 110 | 9.6 | 20.9 | 0.00 | 0.00 | 0.00 | 70 | 1006.9 |
| 20260505193049 | 82 | 265 | 7.8 | 13.9 | 0.00 | 0.00 | 0.00 | 72 | 1007.2 |
| 20260505192550 | 82 | 142 | 10.4 | 19.1 | 0.00 | 0.00 | 0.00 | 70 | 1007.0 |
| 20260505192049 | 82 | 163 | 9.6 | 17.4 | 0.00 | 0.00 | 0.00 | 71 | 1006.9 |
| 20260505191555 | 81 | 142 | 10.4 | 21.7 | 0.00 | 0.00 | 0.00 | 71 | 1007.1 |
| 20260505191551 | 80 | 229 | 7.0 | 17.4 | 0.00 | 0.00 | 0.00 | 73 | 1007.2 |
| 20260505191049 | 81 | 151 | 11.3 | 21.7 | 0.00 | 0.00 | 0.00 | 71 | 1006.9 |
| 20260505190548 | 80 | 146 | 11.3 | 20.9 | 0.00 | 0.00 | 0.00 | 72 | 1007.0 |
| 20260505190056 | 80 | 109 | 12.2 | 21.7 | 0.00 | 0.00 | 0.00 | 72 | 1006.8 |
| 20260505190050 | 80 | 254 | 6.1 | 16.5 | 0.00 | 0.00 | 0.00 | 74 | 1007.3 |
| 20260505185550 | 80 | 127 | 12.2 | 26.9 | 0.00 | 0.00 | 0.00 | 72 | 1006.8 |
| 20260505185049 | 80 | 144 | 12.2 | 26.9 | 0.00 | 0.00 | 0.00 | 71 | 1006.8 |
| 20260505184555 | 80 | 126 | 13.0 | 22.6 | 0.00 | 0.00 | 0.00 | 71 | 1007.0 |
| 20260505184551 | 80 | 245 | 8.7 | 20.9 | 0.00 | 0.00 | 0.00 | 75 | 1007.4 |
| 20260505184049 | 80 | 142 | 9.6 | 25.2 | 0.00 | 0.00 | 0.00 | 71 | 1007.1 |
| 20260505183552 | 80 | 131 | 13.9 | 25.2 | 0.00 | 0.00 | 0.00 | 71 | 1007.2 |
| 20260505183102 | 79 | 256 | 7.8 | 16.5 | 0.00 | 0.00 | 0.00 | 74 | 1007.8 |
| 20260505183056 | 80 | 119 | 11.3 | 24.3 | 0.00 | 0.00 | 0.00 | 72 | 1007.2 |
| 20260505182549 | 80 | 143 | 13.0 | 24.3 | 0.00 | 0.00 | 0.00 | 71 | 1007.2 |
| 20260505182049 | 80 | 162 | 9.6 | 19.1 | 0.00 | 0.00 | 0.00 | 71 | 1007.3 |
| 20260505181553 | 79 | 228 | 7.8 | 20.0 | 0.00 | 0.00 | 0.00 | 76 | 1008.0 |
| 20260505181050 | 79 | 173 | 10.4 | 24.3 | 0.00 | 0.00 | 0.00 | 72 | 1007.5 |
| 20260505180549 | 78 | 134 | 15.6 | 24.3 | 0.00 | 0.00 | 0.00 | 74 | 1007.4 |
| 20260505180056 | 78 | 149 | 12.2 | 24.3 | 0.00 | 0.00 | 0.00 | 74 | 1007.4 |
| 20260505180053 | 79 | 276 | 9.6 | 20.0 | 0.00 | 0.00 | 0.00 | 75 | 1007.8 |
| 20260505175549 | 78 | 138 | 15.6 | 24.3 | 0.00 | 0.00 | 0.00 | 73 | 1007.5 |
| 20260505175049 | 79 | 157 | 13.9 | 26.9 | 0.00 | 0.00 | 0.00 | 73 | 1007.6 |
| 20260505174558 | 79 | 249 | 7.8 | 17.4 | 0.00 | 0.00 | 0.00 | 76 | 1007.9 |
| 20260505174551 | 79 | 160 | 14.8 | 26.9 | 0.00 | 0.00 | 0.00 | 74 | 1007.4 |
| 20260505174048 | 79 | 151 | 14.8 | 31.3 | 0.00 | 0.00 | 0.00 | 73 | 1007.6 |
| 20260505173548 | 79 | 151 | 14.8 | 31.3 | 0.00 | 0.00 | 0.00 | 72 | 1007.6 |
| 20260505173054 | 78 | 241 | 9.6 | 18.2 | 0.00 | 0.00 | 0.00 | 77 | 1008.1 |
| 20260505173049 | 79 | 134 | 13.0 | 25.2 | 0.00 | 0.00 | 0.00 | 73 | 1007.4 |
| 20260505172548 | 78 | 119 | 14.8 | 25.2 | 0.00 | 0.00 | 0.00 | 73 | 1007.5 |
| 20260505172048 | 78 | 90 | 14.8 | 25.2 | 0.00 | 0.00 | 0.00 | 73 | 1007.4 |
| 20260505171554 | 77 | 244 | 7.8 | 17.4 | 0.00 | 0.00 | 0.00 | 78 | 1007.9 |
| 20260505171551 | 78 | 119 | 13.0 | 27.8 | 0.00 | 0.00 | 0.00 | 75 | 1007.4 |
| 20260505171050 | 77 | 139 | 13.9 | 27.8 | 0.00 | 0.00 | 0.00 | 75 | 1007.5 |
| 20260505170549 | 77 | 171 | 13.0 | 26.1 | 0.00 | 0.00 | 0.00 | 76 | 1007.4 |
| 20260505170050 | 76 | 155 | 14.8 | 26.1 | 0.00 | 0.00 | 0.00 | 76 | 1007.5 |
| 20260505165549 | 76 | 148 | 16.5 | 25.2 | 0.00 | 0.00 | 0.00 | 76 | 1007.5 |
| 20260505165049 | 76 | 127 | 15.6 | 23.5 | 0.00 | 0.00 | 0.00 | 76 | 1007.7 |
| 20260505164600 | 76 | 163 | 9.6 | 23.5 | 0.00 | 0.00 | 0.00 | 77 | 1007.8 |
| 20260505164049 | 76 | 134 | 14.8 | 23.5 | 0.00 | 0.00 | 0.00 | 78 | 1007.7 |
| 20260505163549 | 75 | 140 | 13.0 | 25.2 | 0.00 | 0.00 | 0.00 | 78 | 1007.9 |
| 20260505163050 | 75 | 265 | 7.0 | 17.4 | 0.00 | 0.00 | 0.00 | 80 | 1008.3 |
| 20260505162548 | 75 | 148 | 13.0 | 25.2 | 0.00 | 0.00 | 0.00 | 78 | 1008.0 |
| 20260505162049 | 75 | 149 | 8.7 | 20.9 | 0.00 | 0.00 | 0.00 | 79 | 1008.1 |
| 20260505161602 | 75 | 283 | 6.1 | 16.5 | 0.00 | 0.00 | 0.00 | 80 | 1008.3 |
| 20260505161556 | 75 | 186 | 11.3 | 21.7 | 0.00 | 0.00 | 0.00 | 79 | 1008.0 |
| 20260505161049 | 75 | 146 | 9.6 | 24.3 | 0.00 | 0.00 | 0.00 | 79 | 1008.0 |
| 20260505160551 | 74 | 124 | 12.2 | 24.3 | 0.00 | 0.00 | 0.00 | 79 | 1008.0 |
| 20260505153107 | 74 | 146 | 9.6 | 20.0 | 0.00 | 0.00 | 0.00 | 80 | 1007.8 |
| 20260505153100 | 74 | 277 | 7.8 | 15.6 | 0.00 | 0.00 | 0.00 | 81 | 1008.1 |
| 20260505152552 | 74 | 126 | 11.3 | 20.0 | 0.00 | 0.00 | 0.00 | 80 | 1007.8 |
| 20260505152051 | 74 | 162 | 11.3 | 20.9 | 0.00 | 0.00 | 0.00 | 80 | 1007.9 |
| 20260505151603 | 73 | 233 | 7.8 | 13.0 | 0.00 | 0.00 | 0.00 | 81 | 1008.2 |
| 20260505151552 | 73 | 121 | 12.2 | 20.9 | 0.00 | 0.00 | 0.00 | 80 | 1007.8 |
| 20260505151049 | 73 | 166 | 11.3 | 20.9 | 0.00 | 0.00 | 0.00 | 80 | 1007.8 |
| 20260505150549 | 73 | 136 | 8.7 | 21.7 | 0.00 | 0.00 | 0.00 | 80 | 1007.9 |
| 20260505140549 | 72 | 146 | 10.4 | 20.0 | 0.00 | 0.00 | 0.00 | 82 | 1007.7 |
| 20260505140110 | 72 | 249 | 6.1 | 13.9 | 0.00 | 0.00 | 0.00 | 81 | 1008.1 |